Location: Holyhead Bay
(53.3667°N, 4.6667°W)
Time: 18:30:45
(UTC+00:00)

Cosmos 1821 Rocket - Pass Details

Date: 24 November 2020
Orbit: 946 x 1004 km, 82.9° (Epoch: 16 January)

Event Time Altitude Azimuth Distance (km) Brightness Sun altitude
Rises 19:46:31 0° 347° (NNW) 3,654 7.2 -31.5°
Reaches altitude 10° 19:49:02 10° 344° (NNW) 2,710 6.5 -31.9°
Maximum altitude 19:55:07 62° 266° (W) 1,094 4.3 -32.8°
Enters shadow 19:56:16 53° 222° (SW) 1,191 4.5 -32.9°
